Showing default

STEP CUBE LAB-II, 52897

Orbit data source: Space-Track

STEP CUBE LAB-II, 52897 is a payload satellite owned by Chosun U (KR) in SSO that was launched on Tue, 21 Jun 2022 UTC via an NURI launch vehicle from the Naro Space Center, South Korea (NSC). Payload-class satellites include a variety of spacecraft equipped with specific instruments for various scientific and technological missions. These include communications satellites like Starlink; space stations such as the ISS; scientific satellites like the Hubble; Earth observation satellites from companies like Planet Labs, Umbra, and HawkEye 360; GPS; miniature CubeSats for education and research; and military/defense satellites.

Loading next visibility...
Identifier
52897, 2022-065D
Orbit
SSO
Country
Flag of KRKR / SKOR
Related business
Manufacturer
Chosun U
Mission
Operational Amateur Technology
Bus & Motor
CUBESAT 6U, Unknown motor
Mass
10 kg wet, 10 kg dry
Launch date (UTC)
2022-06-21 (4 years ago)
Launch vehicle
NURI
Launch site
Naro Space Center, South Korea (NSC)
Object type
Payload
Rocket body
Debris
Shape & HBR
Box, 0.1 m
Radar Cross Section
0.080 m², Medium (>0.1 m² and < 1m²)

Expand to show TLE details & history
Last TLE update: 1 day ago

TLE from 1 day ago
0 STEP CUBE LAB-II
1 52897U 22065D   26172.51217672  .00000581  00000-0  12191-3 0  9996
2 52897  98.2239 316.4005 0008988  20.0733 340.0821 14.63308576212133
Epoch: 2026-06-21T12:17Z
TLE epoch observation values (Epoch: 2026-06-21T12:17:32.068Z)
Latitude
Longitude
-137.6945°
Altitude
679.533 km
Speed
7.52 km/s
True Right ascension
21h 05m 36s
True Declination
0° 00' 00"
Sunlit
Object was in full shadow at epoch
Visualization orbit readout
Latitude
Unknown
Longitude
Unknown
Altitude
Unknown
Speed
Unknown
Apparent Right ascension
Unknown
Apparent Declination
Unknown
Sunlit
N/A
Visualization observer readout
Local Sidereal Time
23:18:46
Azimuth
Unknown
Elevation
Unknown
Doppler factor
Unknown
Orbital elements
Apogee altitude
685.932 km
Perigee altitude
673.245 km
Semi-major axis
7,057.726 km
Eccentricity
0.0009
Inclination
98.2239°
RAAN
316.4005°
Arg. of periapsis
20.0733°
True anomaly
340.04698°
Mean anomaly
340.0821°
Eccentric anomaly
340.06454°
Mean motion
3.66055 °/min
Orbital period
98.35 mins
BSTAR
0.00012191
Loading maneuver chart data...
Computing Atmospheric mass density...
Loading historical data...
Loading historical data...
Loading historical data...
Loading historical data...
Loading historical data...
Loading historical data...
Loading historical data...

Documentation

Showing up to 5 results
|